GLACB EGLM-EGHN

Flight info

Callsign GLACB
Flight time 0h 25m
Altitude 3000
Route EGCB NWTC EGLM
Aircraft P28A/L-VGD/A

Departure

Time 2026-04-20 14:08
Airport White Waltham Airfield (EGLM)

Arrival

Time 2026-04-20 14:33
Airport Isle of Wight/Sandown Airport (EGHN)
Time Latitude Longitude Altitude Speed Heading
2026-04-20 13:55 51.50055 -0.76580 115 ft 0 kts 259°
2026-04-20 13:59 51.50053 -0.76593 115 ft 2 kts 257°
2026-04-20 13:59 51.50051 -0.76623 115 ft 3 kts 259°
2026-04-20 14:00 51.50045 -0.76666 115 ft 5 kts 256°
2026-04-20 14:00 51.50039 -0.76717 117 ft 4 kts 259°
2026-04-20 14:00 51.50037 -0.76761 118 ft 3 kts 271°
2026-04-20 14:00 51.50037 -0.76779 119 ft 0 kts 270°
2026-04-20 14:01 51.50037 -0.76780 119 ft 1 kts 270°
2026-04-20 14:01 51.50037 -0.76787 120 ft 1 kts 269°
2026-04-20 14:02 51.50037 -0.76829 123 ft 10 kts 278°
2026-04-20 14:02 51.50037 -0.76924 127 ft 4 kts 275°
2026-04-20 14:02 51.50038 -0.76940 128 ft 5 kts 275°
2026-04-20 14:02 51.50028 -0.77127 133 ft 20 kts 273°
2026-04-20 14:03 51.50015 -0.77400 136 ft 38 kts 248°
2026-04-20 14:03 51.49882 -0.77857 131 ft 49 kts 235°
2026-04-20 14:03 51.49772 -0.78108 128 ft 0 kts 328°
2026-04-20 14:06 51.49799 -0.78132 131 ft 12 kts 332°
2026-04-20 14:06 51.49870 -0.78154 129 ft 0 kts 65°
2026-04-20 14:07 51.49887 -0.78100 129 ft 27 kts 64°
2026-04-20 14:07 51.50047 -0.77575 217 ft 67 kts 62°
2026-04-20 14:07 51.49859 -0.76942 500 ft 101 kts 162°
2026-04-20 14:07 51.49118 -0.77275 702 ft 119 kts 206°
2026-04-20 14:08 51.48450 -0.78068 938 ft 120 kts 223°
2026-04-20 14:08 51.47862 -0.79101 1152 ft 131 kts 225°
2026-04-20 14:08 51.47228 -0.80189 1420 ft 136 kts 225°
2026-04-20 14:08 51.46569 -0.81331 1630 ft 144 kts 226°
2026-04-20 14:09 51.45746 -0.82343 1638 ft 153 kts 205°
2026-04-20 14:09 51.44794 -0.83088 1641 ft 154 kts 201°
2026-04-20 14:09 51.43795 -0.83664 1642 ft 150 kts 192°
2026-04-20 14:09 51.42794 -0.84115 1639 ft 152 kts 192°
2026-04-20 14:10 51.41770 -0.84563 1636 ft 151 kts 192°
2026-04-20 14:10 51.40762 -0.85014 1641 ft 151 kts 191°
2026-04-20 14:10 51.39755 -0.85497 1638 ft 151 kts 191°
2026-04-20 14:10 51.38740 -0.85963 1633 ft 151 kts 193°
2026-04-20 14:11 51.37732 -0.86408 1636 ft 150 kts 192°
2026-04-20 14:11 51.36726 -0.86863 1632 ft 152 kts 192°
2026-04-20 14:11 51.35705 -0.87307 1627 ft 151 kts 191°
2026-04-20 14:11 51.34697 -0.87774 1625 ft 151 kts 192°
2026-04-20 14:12 51.33676 -0.88263 1634 ft 154 kts 191°
2026-04-20 14:12 51.32652 -0.88760 1642 ft 153 kts 191°
2026-04-20 14:12 51.31638 -0.89255 1646 ft 151 kts 192°
2026-04-20 14:12 51.30972 -0.89577 1637 ft 150 kts 191°
2026-04-20 14:13 51.29993 -0.90044 1634 ft 144 kts 192°
2026-04-20 14:13 51.29036 -0.90481 1633 ft 143 kts 190°
2026-04-20 14:13 51.28093 -0.90912 1628 ft 139 kts 191°
2026-04-20 14:13 51.26865 -0.91508 1632 ft 140 kts 193°
2026-04-20 14:14 51.26234 -0.91806 1630 ft 141 kts 192°
2026-04-20 14:14 51.25291 -0.92229 1633 ft 140 kts 192°
2026-04-20 14:14 51.24353 -0.92622 1633 ft 139 kts 191°
2026-04-20 14:14 51.23439 -0.93041 1637 ft 139 kts 191°
2026-04-20 14:15 51.22503 -0.93463 1635 ft 140 kts 192°
2026-04-20 14:15 51.21558 -0.93862 1604 ft 140 kts 191°
2026-04-20 14:15 51.20610 -0.94279 1606 ft 141 kts 191°
2026-04-20 14:15 51.19668 -0.94706 1608 ft 141 kts 191°
2026-04-20 14:16 51.18733 -0.95131 1609 ft 139 kts 190°
2026-04-20 14:16 51.17816 -0.95573 1610 ft 136 kts 193°
2026-04-20 14:16 51.16903 -0.96000 1605 ft 137 kts 192°
2026-04-20 14:16 51.15986 -0.96427 1609 ft 137 kts 191°
2026-04-20 14:17 51.15076 -0.96846 1606 ft 135 kts 193°
2026-04-20 14:17 51.14177 -0.97237 1606 ft 132 kts 192°
2026-04-20 14:17 51.13286 -0.97664 1613 ft 136 kts 195°
2026-04-20 14:17 51.12397 -0.98200 1610 ft 135 kts 196°
2026-04-20 14:18 51.11514 -0.98714 1615 ft 136 kts 195°
2026-04-20 14:18 51.10642 -0.99254 1607 ft 135 kts 197°
2026-04-20 14:18 51.09758 -0.99760 1619 ft 137 kts 195°
2026-04-20 14:18 51.08842 -1.00284 1620 ft 141 kts 195°
2026-04-20 14:19 51.07915 -1.00846 1615 ft 142 kts 197°
2026-04-20 14:19 51.06988 -1.01362 1615 ft 141 kts 194°
2026-04-20 14:19 51.06086 -1.01890 1612 ft 135 kts 194°
2026-04-20 14:19 51.05195 -1.02409 1618 ft 138 kts 194°
2026-04-20 14:20 51.04293 -1.02957 1613 ft 139 kts 194°
2026-04-20 14:20 51.03390 -1.03490 1613 ft 137 kts 194°
2026-04-20 14:20 51.02493 -1.04032 1613 ft 139 kts 195°
2026-04-20 14:20 51.01602 -1.04561 1618 ft 136 kts 195°
2026-04-20 14:21 51.00705 -1.05062 1619 ft 138 kts 195°
2026-04-20 14:21 50.99816 -1.05571 1613 ft 137 kts 195°
2026-04-20 14:21 50.98920 -1.06077 1607 ft 136 kts 195°
2026-04-20 14:21 50.98023 -1.06594 1606 ft 138 kts 195°
2026-04-20 14:22 50.97139 -1.07099 1686 ft 135 kts 194°
2026-04-20 14:22 50.96235 -1.07635 1825 ft 143 kts 194°
2026-04-20 14:22 50.95281 -1.08203 1963 ft 148 kts 195°
2026-04-20 14:22 50.94312 -1.08753 2105 ft 148 kts 195°
2026-04-20 14:23 50.93316 -1.09287 2235 ft 152 kts 194°
2026-04-20 14:23 50.92324 -1.09827 2362 ft 149 kts 194°
2026-04-20 14:23 50.91339 -1.10368 2495 ft 151 kts 194°
2026-04-20 14:23 50.90358 -1.10931 2609 ft 153 kts 196°
2026-04-20 14:24 50.89324 -1.11481 2617 ft 158 kts 194°
2026-04-20 14:24 50.88271 -1.12051 2605 ft 160 kts 194°
2026-04-20 14:24 50.87219 -1.12640 2615 ft 160 kts 195°
2026-04-20 14:24 50.86161 -1.13208 2609 ft 161 kts 195°
2026-04-20 14:25 50.85098 -1.13785 2617 ft 162 kts 194°
2026-04-20 14:25 50.84046 -1.14379 2620 ft 163 kts 195°
2026-04-20 14:25 50.82978 -1.14966 2621 ft 163 kts 194°
2026-04-20 14:25 50.81913 -1.15558 2622 ft 161 kts 195°
2026-04-20 14:26 50.80835 -1.16142 2624 ft 162 kts 194°
2026-04-20 14:26 50.79774 -1.16700 2620 ft 163 kts 194°
2026-04-20 14:26 50.78712 -1.17287 2619 ft 164 kts 195°
2026-04-20 14:26 50.77621 -1.17887 2614 ft 164 kts 195°
2026-04-20 14:27 50.76541 -1.18467 2624 ft 164 kts 194°
2026-04-20 14:27 50.75462 -1.19042 2480 ft 159 kts 194°
2026-04-20 14:27 50.74454 -1.19595 2292 ft 149 kts 194°
2026-04-20 14:27 50.73487 -1.20147 2107 ft 146 kts 195°
2026-04-20 14:28 50.72525 -1.20686 1921 ft 146 kts 194°
2026-04-20 14:28 50.71577 -1.21229 1729 ft 143 kts 195°
2026-04-20 14:28 50.70654 -1.21719 1547 ft 140 kts 191°
2026-04-20 14:28 50.69728 -1.21823 1520 ft 128 kts 174°
2026-04-20 14:29 50.68855 -1.21873 1515 ft 124 kts 175°
2026-04-20 14:29 50.68077 -1.21586 1517 ft 111 kts 145°
2026-04-20 14:29 50.67497 -1.20834 1518 ft 106 kts 127°
2026-04-20 14:29 50.67017 -1.19951 1516 ft 106 kts 125°
2026-04-20 14:30 50.66540 -1.19068 1520 ft 106 kts 126°
2026-04-20 14:30 50.66064 -1.18165 1521 ft 108 kts 125°
2026-04-20 14:30 50.65580 -1.17232 1411 ft 112 kts 125°
2026-04-20 14:30 50.65051 -1.16327 1194 ft 115 kts 144°
2026-04-20 14:31 50.64258 -1.16403 1020 ft 120 kts 211°
2026-04-20 14:31 50.63703 -1.17199 1004 ft 97 kts 217°
2026-04-20 14:31 50.63258 -1.17886 1020 ft 84 kts 217°
2026-04-20 14:31 50.63001 -1.18668 943 ft 88 kts 268°
2026-04-20 14:32 50.63294 -1.19469 804 ft 85 kts 329°
2026-04-20 14:32 50.63828 -1.19783 593 ft 81 kts 17°
2026-04-20 14:32 50.64347 -1.19542 344 ft 74 kts 33°
2026-04-20 14:32 50.64744 -1.19080 174 ft 72 kts 50°
2026-04-20 14:33 50.65071 -1.18565 56 ft 65 kts 49°
2026-04-20 14:33 50.65320 -1.18188 52 ft 23 kts 44°
2026-04-20 14:33 50.65328 -1.18125 51 ft 6 kts 220°
2026-04-20 14:33 50.65301 -1.18157 51 ft 5 kts 212°
2026-04-20 14:34 50.65255 -1.18190 49 ft 9 kts 198°
2026-04-20 14:34 50.65192 -1.18260 46 ft 12 kts 224°
2026-04-20 14:34 50.65130 -1.18358 47 ft 13 kts 229°
2026-04-20 14:34 50.65071 -1.18472 45 ft 14 kts 224°
2026-04-20 14:35 50.65039 -1.18513 47 ft 1 kts 214°
2026-04-20 14:35 50.64999 -1.18541 46 ft 14 kts 212°
2026-04-20 14:35 50.64957 -1.18620 49 ft 5 kts 280°
2026-04-20 14:35 50.64949 -1.18628 50 ft 4 kts 70°
2026-04-20 14:36 50.64954 -1.18619 49 ft 0 kts 49°